Regional Weather Roundup
Issued by NWS

Home | Current Version | Previous Version | Text Only | Print | Product List | Glossary On
Versions: 1 2 3 4 5 6 7 8 9 10 11 12 13 14 15 16 17 18 19 20 21 22 23 24 25 26 27 28 29 30 31 32 33 34 35 36 37 38 39 40 41 42 43 44 45 46 47 48 49 50
000
ASUS45 KREV 250210
RWRNV
NEVADA REGIONAL WEATHER ROUNDUP
NATIONAL WEATHER SERVICE RENO NV
700 PM PDT FRI APR 24 2015

NOTE: "FAIR" INDICATES FEW OR NO CLOUDS BELOW 12,000 FEET WITH NO
SIGNIFICANT WEATHER AND/OR OBSTRUCTIONS TO VISIBILITY.

NVZ001-003-004-250300-
WESTERN NEVADA

CITY           SKY/WX    TMP DP  RH WIND       PRES   REMARKS
RENO           MOCLDY    54  29  38 W10       29.87R
CARSON CITY    CLOUDY    50  27  40 SW7       29.89S
MINDEN         CLOUDY    50  27  40 SW13G18   29.91
PYRAMID LAKE     N/A     55 N/A N/A SW3         N/A
FALLON         MOCLDY    56  29  35 W17       29.82R
LOVELOCK       CLOUDY    54  33  45 W23       29.80S
HAWTHORNE      CLOUDY    61  23  23 NW13G24   29.83R
$$

NVZ002-CAZ072-073-250300-
NORTHERN AND CENTRAL SIERRA

CITY           SKY/WX    TMP DP  RH WIND       PRES   REMARKS
S. LAKE TAHOE  CLOUDY    43  23  45 S13G20    29.94R
TRUCKEE        MOCLDY    39  30  70 SW12      29.92S
SQUAW VLY 8000   N/A     30  28  93 S25         N/A
SUSANVILLE     MOCLDY    50  32  50 W13G18    29.86R
BLUE CANYON    CLOUDY    42  27  55 S10       29.97S
MAMMOTH LAKES  MOCLDY    43  25  49 W6G16     29.95F
BRIDGEPORT     CLOUDY    43  24  47 SW13G24   29.91R
$$

NVZ030-031-036-250300-
NORTHERN NEVADA

CITY           SKY/WX    TMP DP  RH WIND       PRES   REMARKS
ELKO           CLOUDY    43  37  79 SW8       29.82R
WINNEMUCCA     CLOUDY    49  32  52 W12       29.81R
WENDOVER       CLOUDY    50  36  57 NW17      29.75R
$$

NVZ035-037-250300-
CENTRAL NEVADA

CITY           SKY/WX    TMP DP  RH WIND       PRES   REMARKS
ELY            CLOUDY    45  37  73 CALM      29.82S
EUREKA           N/A     49  30  48 NW8       29.81S
$$

NVZ013-014-250300-
SOUTH CENTRAL NEVADA

CITY           SKY/WX    TMP DP  RH WIND       PRES   REMARKS
TONOPAH        MOCLDY    57  25  29 N15       29.81R
$$

NVZ017-020-022-250300-
SOUTHERN NEVADA

CITY           SKY/WX    TMP DP  RH WIND       PRES   REMARKS
LAS VEGAS      CLOUDY    73  36  25 SW20G31   29.67R
N. LAS VEGAS   CLOUDY    73  34  23 SW22G29   29.67F
NELLIS AFB     CLOUDY    75  38  26 SW23G30   29.67S
HENDERSON      MOCLDY    71  36  27 SW18G29   29.73R
MERCURY        CLOUDY    69  34  27 S22G28    29.71R
$$


USA.gov is the U.S. government's official web portal to all federal, state and local government web resources and services.